| time (UTC) | temp C | wind direction | speed KPH | gust KPH | rain 1hr cm | rain 24hr cm | rain mn cm | humidity % | barometer mb |
| 20260504081510 | 7 | 215 | 0.0 | 0.0 | 0.00 | 0.00 | 0.00 | 59 | 1012.2 |
| 20260504044547 | 9 | 212 | 0.0 | 0.0 | 0.00 | 0.00 | 0.00 | 51 | 1011.4 |
| 20260504043107 | 8 | 212 | 0.0 | 0.0 | 0.00 | 0.00 | 0.00 | 51 | 1011.3 |
| 20260504041541 | 8 | 212 | 0.0 | 0.0 | 0.00 | 0.00 | 0.00 | 51 | 1011.2 |
| 20260504040042 | 9 | 212 | 0.0 | 0.0 | 0.00 | 0.00 | 0.00 | 52 | 1011.1 |
| 20260504034547 | 9 | 212 | 0.0 | 0.0 | 0.00 | 0.00 | 0.00 | 52 | 1011.2 |
| 20260504033037 | 9 | 212 | 0.0 | 0.0 | 0.00 | 0.00 | 0.00 | 52 | 1011.2 |
| 20260504031548 | 9 | 212 | 0.0 | 0.0 | 0.00 | 0.00 | 0.00 | 52 | 1011.1 |
| 20260504030050 | 10 | 212 | 0.0 | 0.0 | 0.00 | 0.00 | 0.00 | 50 | 1011.2 |
| 20260504024539 | 10 | 212 | 0.0 | 0.0 | 0.00 | 0.00 | 0.00 | 46 | 1011.3 |
| 20260504023035 | 10 | 212 | 0.0 | 0.0 | 0.00 | 0.00 | 0.00 | 45 | 1011.3 |
| 20260504021541 | 10 | 212 | 0.0 | 0.0 | 0.00 | 0.00 | 0.00 | 44 | 1011.2 |
| 20260504020037 | 11 | 212 | 0.0 | 0.0 | 0.00 | 0.00 | 0.00 | 43 | 1011.1 |
| 20260504014532 | 11 | 212 | 0.0 | 1.6 | 0.00 | 0.00 | 0.00 | 44 | 1011.1 |
| 20260504013035 | 11 | 212 | 0.0 | 1.6 | 0.00 | 0.00 | 0.00 | 43 | 1011.0 |
| 20260504011529 | 11 | 207 | 0.0 | 0.0 | 0.00 | 0.00 | 0.00 | 42 | 1010.9 |
| 20260504010026 | 11 | 200 | 0.0 | 0.0 | 0.00 | 0.00 | 0.00 | 41 | 1010.6 |
| 20260504004538 | 11 | 200 | 0.0 | 0.0 | 0.00 | 0.00 | 0.00 | 40 | 1010.6 |
| 20260504003023 | 11 | 200 | 0.0 | 0.0 | 0.00 | 0.00 | 0.00 | 38 | 1010.3 |
| 20260504001532 | 12 | 200 | 0.0 | 0.0 | 0.00 | 0.00 | 0.00 | 38 | 1010.1 |
| 20260504000023 | 12 | 200 | 0.0 | 1.6 | 0.00 | 0.00 | 0.00 | 37 | 1010.0 |
| 20260503234524 | 12 | 190 | 0.0 | 1.6 | 0.00 | 0.00 | 0.00 | 36 | 1009.7 |
| 20260503233022 | 12 | 128 | 0.0 | 1.6 | 0.00 | 0.00 | 0.00 | 34 | 1009.6 |
| 20260503231523 | 13 | 243 | 0.0 | 1.6 | 0.00 | 0.00 | 0.00 | 34 | 1009.3 |
| 20260503230026 | 13 | 338 | 0.0 | 0.0 | 0.00 | 0.00 | 0.00 | 32 | 1009.2 |
| 20260503224520 | 13 | 258 | 0.0 | 0.0 | 0.00 | 0.00 | 0.00 | 33 | 1009.0 |
| 20260503223020 | 13 | 63 | 0.0 | 1.6 | 0.00 | 0.00 | 0.00 | 32 | 1009.0 |
| 20260503221519 | 13 | 268 | 0.0 | 1.6 | 0.00 | 0.00 | 0.00 | 29 | 1009.0 |
| 20260503220029 | 13 | 219 | 0.0 | 1.6 | 0.00 | 0.00 | 0.00 | 29 | 1009.0 |
| 20260503214529 | 14 | 212 | 0.0 | 1.6 | 0.00 | 0.00 | 0.00 | 29 | 1009.0 |
| 20260503213028 | 15 | 238 | 0.0 | 3.2 | 0.00 | 0.00 | 0.00 | 29 | 1008.8 |
| 20260503211518 | 15 | 221 | 0.0 | 1.6 | 0.00 | 0.00 | 0.00 | 32 | 1008.8 |
| 20260503210019 | 15 | 211 | 0.0 | 1.6 | 0.00 | 0.00 | 0.00 | 31 | 1008.8 |
| 20260503204524 | 15 | 248 | 0.0 | 1.6 | 0.00 | 0.00 | 0.00 | 32 | 1008.7 |
| 20260503203015 | 15 | 263 | 0.0 | 0.0 | 0.00 | 0.00 | 0.00 | 31 | 1008.8 |
| 20260503201513 | 14 | 99 | 0.0 | 1.6 | 0.00 | 0.00 | 0.00 | 35 | 1008.8 |
| 20260503200011 | 15 | 261 | 0.0 | 1.6 | 0.00 | 0.00 | 0.00 | 36 | 1008.9 |
| 20260503194507 | 14 | 35 | 0.0 | 1.6 | 0.00 | 0.00 | 0.00 | 39 | 1009.0 |
| 20260503193007 | 13 | 89 | 0.0 | 4.8 | 0.00 | 0.00 | 0.00 | 35 | 1009.2 |
| 20260503191505 | 14 | 172 | 0.0 | 1.6 | 0.00 | 0.00 | 0.00 | 39 | 1009.2 |
| 20260503190005 | 13 | 206 | 0.0 | 1.6 | 0.00 | 0.00 | 0.00 | 38 | 1009.3 |
| 20260503184601 | 12 | 98 | 0.0 | 4.8 | 0.00 | 0.00 | 0.00 | 39 | 1009.6 |
| 20260503183105 | 12 | 296 | 0.0 | 1.6 | 0.00 | 0.00 | 0.00 | 39 | 1009.5 |
| 20260503181608 | 12 | 296 | 0.0 | 3.2 | 0.00 | 0.00 | 0.00 | 46 | 1009.6 |
| 20260503180057 | 12 | 209 | 0.0 | 3.2 | 0.00 | 0.00 | 0.00 | 43 | 1009.7 |
| 20260503174608 | 11 | 175 | 0.0 | 1.6 | 0.00 | 0.00 | 0.00 | 41 | 1009.6 |
| 20260503173058 | 12 | 5 | 0.0 | 3.2 | 0.00 | 0.00 | 0.00 | 40 | 1009.7 |
| 20260503171554 | 12 | 355 | 0.0 | 3.2 | 0.00 | 0.00 | 0.00 | 45 | 1009.9 |
| 20260503170104 | 12 | 251 | 0.0 | 1.6 | 0.00 | 0.00 | 0.00 | 39 | 1009.8 |